Wind_Speed
4 4 4 4 4 2 2 3 6 8 9 7 5 3 2 1 1 3 6 1 3 1 2 2 3 3 1 1 1 2 0 2 1 1 2 1 1 0 1 1 2 1 1 1 1 0 1 0 1 1 1 2 2 2 2 1 1 0 0 2 2 1 1 2 4 3 1 1 1 3 6 5 1 2 3 3 3 3 3 1 1 1 3 2 2 5 7
4 4 4 4 3 1 2 5 7 8 8 5 3 2 1 2 1 3 6 3 1 1 1 2 3 2 1 1 1 1 1 2 1 1 1 1 1 0 1 1 1 1 1 1 1 1 0 1 2 1 1 1 0 2 3 2 1 1 0 0 1 1 1 1 3 4 2 2 2 3 3 1 2 2 4 4 4 5 4 3 3 1 5 5 3 6 8
5 4 4 4 2 1 3 6 7 7 6 5 4 2 1 1 1 1 3 4 3 1 1 2 4 3 2 3 2 1 1 1 1 1 1 1 1 1 1 1 1 1 1 1 1 1 0 1 1 1 1 1 1 1 2 2 3 3 1 2 1 1 1 1 1 2 3 4 4 2 1 2 2 2 5 5 6 7 3 2 2 3 5 6 5 8 13
6 5 4 3 2 2 4 6 6 4 4 4 4 3 2 1 1 1 0 3 4 2 1 2 5 4 3 2 1 2 1 1 0 1 1 0 1 0 1 1 1 1 0 1 2 2 1 1 0 1 1 1 1 1 1 1 2 3 2 3 1 1 2 4 5 5 5 5 6 4 3 4 5 3 6 6 6 8 5 2 3 4 3 6 9 11 17
6 6 5 3 2 2 4 5 4 3 4 4 3 3 2 0 1 0 0 1 2 2 2 3 4 3 3 2 2 3 2 2 1 1 1 0 0 0 1 0 1 2 2 2 3 3 2 2 1 1 0 2 2 1 1 0 1 3 1 2 1 0 3 4 5 8 8 8 11 9 6 8 10 8 7 8 8 8 7 7 9 3 2 7 11 9 13
7 6 5 4 4 4 4 4 4 3 3 3 2 2 2 0 0 0 1 1 1 1 1 2 3 3 1 1 1 4 4 3 2 1 1 0 1 1 0 2 4 3 1 1 1 2 2 2 2 0 0 1 2 2 1 1 4 4 1 0 1 0 3 1 1 7 9 10 13 13 9 9 10 10 8 7 10 12 12 14 13 5 4 12 15 12 14
7 6 6 6 5 5 4 4 4 4 3 2 1 1 1 1 1 0 1 0 1 0 3 1 3 4 2 1 2 4 5 4 2 1 1 1 2 2 1 3 6 5 2 1 1 1 2 2 1 1 2 2 2 2 1 2 4 4 2 2 1 1 2 1 1 7 11 12 13 11 8 9 9 10 11 9 10 14 15 15 13 10 13 18 19 20 20
7 7 7 7 7 6 6 5 5 5 4 2 1 0 0 1 1 0 0 2 2 0 2 0 2 1 1 0 2 3 5 5 2 1 2 2 2 4 2 2 4 3 3 3 2 0 2 2 3 3 4 2 3 3 1 3 4 3 2 2 1 1 0 0 0 5 10 9 8 7 7 9 10 11 11 10 10 11 13 14 11 9 14 18 16 18 19
7 8 8 8 8 8 7 7 7 6 4 2 1 1 1 0 1 1 1 2 1 0 1 1 0 1 1 1 2 3 5 6 4 2 1 1 2 4 4 3 5 3 2 5 2 2 3 3 3 4 4 2 2 2 1 4 6 4 2 2 2 2 1 1 2 4 7 4 2 5 7 8 11 13 13 12 11 9 10 9 8 8 11 13 11 11 13
8 8 9 10 10 10 10 10 9 7 6 4 2 1 2 1 0 1 0 1 0 1 0 0 1 0 1 1 2 1 2 5 6 2 0 2 2 1 0 2 3 2 3 5 2 3 3 3 3 2 2 1 1 3 2 3 5 5 4 2 1 2 1 2 2 2 5 2 3 7 8 7 7 9 9 10 11 10 8 8 9 11 9 7 7 10 12
9 10 11 12 12 12 11 10 9 7 8 7 4 2 3 3 1 0 1 1 1 1 0 2 2 1 0 1 1 1 0 4 4 1 1 1 2 3 3 1 1 1 2 3 1 2 2 3 2 1 2 1 1 3 2 1 3 4 5 3 1 2 1 1 0 2 5 6 9 9 6 4 4 3 4 7 8 9 10 10 10 10 9 8 10 12 13
11 12 12 12 11 10 9 8 8 8 9 9 6 3 3 3 2 1 1 1 1 1 1 2 2 1 1 1 2 2 2 2 1 2 3 2 1 2 3 2 1 1 1 2 2 0 1 2 2 2 3 2 1 1 2 3 3 3 4 3 4 4 2 2 1 2 4 6 7 6 3 4 4 2 2 2 1 2 6 11 12 11 11 13 14 15 15
9 9 9 8 8 7 7 6 7 8 9 10 9 5 4 4 3 0 1 1 1 2 2 2 1 1 1 1 3 3 3 3 3 4 4 2 2 2 3 3 1 1 2 2 1 1 1 0 1 1 2 2 1 1 4 5 4 3 2 2 3 5 3 1 2 2 3 4 3 2 7 10 5 1 2 3 3 2 3 11 13 11 13 15 15 16 15
3 4 4 4 4 4 5 5 6 7 8 10 10 9 6 5 4 1 1 1 1 1 2 1 1 3 2 3 5 4 2 2 2 3 3 2 3 3 3 2 1 2 2 1 1 1 1 1 2 1 1 1 1 1 2 3 2 2 2 2 2 3 2 0 1 3 2 2 3 4 9 13 6 1 2 2 1 3 3 6 10 7 10 11 12 13 13
2 2 1 1 2 3 4 4 5 6 8 9 11 10 8 7 6 2 1 1 0 0 2 1 2 5 5 4 5 5 3 2 1 2 1 2 3 3 2 2 2 3 3 1 1 1 1 1 2 2 1 1 1 1 2 2 2 3 2 1 1 1 1 2 1 2 1 1 4 4 5 7 3 2 2 4 4 5 8 0 9 6 8 10 10 10 10
3 2 2 1 1 2 3 4 4 5 7 8 9 9 8 8 8 5 1 1 0 1 2 1 1 3 5 3 1 2 3 3 3 3 2 2 3 2 1 2 2 3 2 1 1 1 1 1 2 2 2 1 1 1 1 2 1 2 3 2 1 1 2 2 1 3 1 0 3 3 4 6 4 4 4 6 5 6 7 2 7 4 6 8 9 9 9
3 3 2 2 1 0 1 2 4 4 5 6 7 7 6 6 9 7 2 1 1 1 1 3 3 1 3 3 1 1 2 3 3 2 2 3 3 2 0 1 1 2 2 0 1 1 1 2 2 3 3 1 2 1 1 1 2 0 1 1 1 1 0 2 2 4 3 3 4 3 5 7 3 7 7 5 6 7 4 6 8 4 6 7 8 9 9
4 4 3 3 2 1 1 1 2 3 4 3 3 2 2 3 7 7 2 1 1 1 2 4 3 0 2 1 1 1 1 2 2 2 3 3 2 3 3 2 1 0 1 0 1 1 2 2 2 2 3 1 1 0 1 1 2 1 4 4 3 2 2 3 4 4 4 5 4 4 6 6 2 7 8 7 5 4 3 7 6 4 7 7 8 8 9
6 6 5 5 4 3 2 1 2 2 3 3 2 1 1 0 5 7 3 2 1 1 1 3 3 1 1 1 2 1 1 1 1 2 3 2 1 4 4 1 0 1 1 0 0 1 2 2 2 1 2 2 1 0 1 1 1 1 3 3 3 3 3 3 4 4 4 5 4 4 6 4 5 8 6 5 2 2 5 5 4 5 7 8 8 9 8
7 7 6 6 5 4 3 2 2 2 4 4 2 1 3 1 4 6 4 3 4 3 2 2 3 3 3 2 0 0 1 1 1 1 2 2 2 4 3 1 2 2 2 1 2 1 2 2 1 1 2 3 1 0 1 3 3 2 3 3 4 4 3 3 4 4 3 3 2 3 7 3 9 10 4 2 4 5 5 3 3 5 7 7 7 8 8
8 7 7 6 6 5 4 3 3 3 4 3 1 2 5 4 3 4 5 5 5 3 1 1 2 3 4 3 2 2 1 1 1 0 2 2 3 3 1 1 3 3 2 3 2 1 1 1 0 1 1 2 1 0 1 3 5 2 2 1 2 3 4 3 3 3 3 3 4 4 4 5 10 9 3 6 9 8 4 5 6 6 6 5 6 7 8
9 9 8 7 6 6 5 5 4 2 3 2 1 2 6 8 9 7 5 8 12 8 5 5 5 5 5 4 2 2 2 2 2 0 1 1 2 1 1 1 3 2 1 2 2 2 1 1 0 1 2 1 1 2 3 3 4 3 0 1 3 5 5 3 2 3 3 4 8 8 4 4 9 9 8 10 11 9 7 7 8 8 6 5 6 7 7
10 10 9 9 9 8 7 6 5 3 3 2 0 2 7 11 12 9 8 12 15 11 6 7 6 5 5 4 3 1 2 3 2 1 0 1 2 2 1 0 1 1 1 1 1 1 1 1 1 0 2 2 1 2 4 4 3 3 2 3 5 5 3 4 1 3 4 7 12 12 11 10 9 10 11 12 13 11 9 8 9 9 8 6 6 7 8
11 10 10 10 10 11 10 10 10 8 6 5 3 4 9 12 12 10 10 10 8 4 3 2 1 2 2 1 1 1 1 1 2 1 1 1 0 1 1 2 1 0 1 1 0 0 0 1 0 1 2 2 1 1 4 5 4 3 2 3 4 1 3 3 2 2 3 6 8 7 9 12 10 8 10 12 13 12 9 8 9 10 9 8 8 8 7
12 12 12 11 11 11 11 12 12 11 11 10 8 7 9 9 7 6 5 4 3 3 3 1 1 1 0 0 1 1 2 1 1 1 1 1 1 0 0 2 3 1 1 2 2 1 0 1 0 1 3 2 0 2 4 4 2 1 1 4 4 0 3 1 5 5 4 9 13 12 12 14 14 11 10 10 11 11 10 9 9 9 9 8 8 7 7
11 10 10 10 10 10 11 11 11 12 11 10 8 6 6 5 3 2 3 3 2 3 3 2 0 0 0 1 2 2 3 2 2 1 0 0 0 1 1 3 3 1 0 2 2 1 1 2 1 2 3 1 1 1 2 3 3 2 4 5 1 3 1 2 3 5 7 11 15 14 13 13 13 12 10 9 9 9 9 9 9 9 9 9 8 8 8
8 8 8 8 8 8 9 9 10 11 11 10 8 7 6 5 3 1 2 2 2 1 2 2 1 1 2 2 2 3 3 2 1 1 1 1 1 2 1 3 2 1 1 1 0 1 1 1 1 3 4 1 1 1 2 3 2 3 6 4 3 3 4 3 1 3 7 10 11 9 7 8 11 11 10 9 8 8 8 9 9 10 11 10 9 9 9
10 10 9 8 5 5 6 8 10 12 12 10 8 9 10 11 9 4 1 0 1 2 2 2 3 3 3 2 2 3 3 2 1 1 1 1 1 2 1 3 3 2 1 2 1 0 2 3 2 2 2 0 1 1 1 1 1 3 6 4 4 5 6 4 4 6 9 11 12 9 6 9 13 13 12 9 6 6 9 11 11 12 11 10 10 10 10
11 12 12 10 6 3 2 4 6 8 7 5 5 5 7 11 13 10 7 5 6 7 5 3 3 3 2 1 1 2 3 3 2 2 2 1 1 1 2 3 3 2 1 1 2 2 3 3 1 1 1 1 0 1 1 1 2 6 7 6 7 8 8 8 8 9 11 14 15 11 9 12 15 15 15 13 8 8 11 13 14 13 11 10 11 12 12
10 12 13 13 10 6 2 1 2 3 2 3 5 3 2 5 8 9 7 6 6 6 4 2 2 1 1 2 2 0 2 1 2 2 1 1 2 2 3 3 4 3 1 1 2 1 2 2 1 1 0 0 1 1 2 2 3 6 8 7 7 7 7 8 9 10 11 14 14 12 12 15 15 15 15 15 13 10 11 13 15 14 11 10 10 11 12
9 11 13 15 14 12 9 5 2 1 3 3 2 2 1 1 4 6 5 4 3 4 4 3 2 2 1 1 2 2 2 1 1 2 3 4 4 4 4 4 3 3 3 2 1 0 1 2 1 2 1 0 1 1 2 2 2 6 10 9 6 5 7 8 8 9 12 14 13 12 13 14 13 12 13 14 13 11 10 12 15 15 12 12 13 13 14
9 11 12 13 14 14 13 11 8 5 3 4 5 4 2 1 3 5 4 2 2 3 3 3 2 1 1 1 2 3 2 2 2 3 3 4 3 4 4 4 3 3 3 1 1 1 1 1 0 1 1 2 1 1 2 2 3 8 11 10 9 8 8 9 9 9 10 10 10 11 13 13 12 13 14 15 15 13 11 13 17 17 15 14 14 15 17
6 7 8 9 10 11 11 11 10 9 9 10 10 9 8 7 5 4 2 1 2 2 3 3 2 1 1 1 1 1 1 1 2 2 2 3 2 2 3 3 2 2 3 2 1 1 0 1 1 1 1 1 1 1 3 4 8 10 12 12 11 11 10 10 9 9 9 8 8 9 13 16 16 16 17 17 17 17 16 16 16 15 12 10 11 13 14
2 3 4 5 6 6 5 5 5 5 5 6 6 7 8 9 9 8 4 1 2 3 3 2 1 1 1 0 0 0 0 1 1 1 1 1 0 0 1 2 1 1 2 2 1 1 0 1 1 1 0 1 1 0 3 7 10 11 11 11 10 10 9 9 9 9 10 11 9 9 12 15 16 16 16 16 16 18 18 15 13 11 10 10 12 12 10
2 2 2 4 5 5 4 3 3 3 2 3 3 4 5 5 7 8 7 3 1 2 1 1 1 1 0 2 2 1 0 1 1 0 1 0 1 1 1 0 0 1 1 1 1 1 1 1 1 1 1 1 1 2 5 8 10 10 9 9 9 9 9 10 11 11 11 11 12 12 12 13 14 15 15 15 15 16 16 14 11 9 11 13 14 12 10
3 3 3 4 5 4 3 2 2 2 2 2 3 5 5 4 4 5 6 6 5 3 0 0 2 2 1 2 2 1 1 1 1 1 1 0 1 0 1 0 1 1 1 1 1 2 1 1 1 1 1 2 3 5 6 7 9 10 10 10 10 8 8 11 13 13 13 13 14 14 14 14 15 15 14 15 15 14 15 16 13 10 12 15 15 13 10
4 4 4 5 4 3 2 2 3 2 2 3 4 5 5 5 4 2 3 5 6 6 3 2 2 2 1 1 1 2 2 1 1 1 1 0 1 0 1 1 1 1 0 0 2 2 0 1 1 2 3 3 4 5 6 6 8 9 9 10 9 8 8 10 12 14 16 17 16 15 15 16 16 14 13 16 17 16 16 16 14 12 13 15 15 14 13
5 5 4 3 2 1 1 2 3 3 3 5 5 4 3 4 3 2 2 3 4 5 4 3 2 1 0 1 1 2 1 1 1 1 0 0 1 0 0 1 0 0 0 2 2 1 1 1 1 3 4 5 5 7 9 9 8 7 7 8 8 7 8 9 11 14 16 17 17 17 17 18 18 17 15 16 16 16 15 14 13 13 12 12 13 14 14
5 5 3 2 1 0 1 4 5 5 4 5 4 2 2 3 2 1 2 2 2 2 3 3 2 2 1 0 1 2 2 1 2 2 1 0 0 1 1 0 1 1 1 2 1 1 1 1 1 2 4 5 5 6 8 7 6 6 7 7 8 9 9 8 10 12 12 12 14 15 15 16 18 18 17 16 16 16 15 14 13 14 13 14 15 15 14
5 4 2 1 1 1 2 5 6 4 3 2 3 1 1 2 2 1 1 2 2 1 1 1 0 1 1 1 1 1 3 3 0 2 2 1 0 0 0 1 1 1 2 3 1 1 1 1 1 1 3 4 5 5 5 6 6 7 8 9 12 15 15 13 14 17 16 14 15 17 16 16 16 15 16 16 17 17 17 16 16 17 18 19 19 18 18
4 3 2 1 2 2 3 4 4 2 1 1 2 2 1 1 1 0 1 2 2 1 0 1 1 1 1 0 1 1 3 3 1 1 1 1 0 1 0 1 1 1 2 3 1 1 1 1 2 2 4 5 5 6 7 9 9 9 11 15 18 20 21 19 20 23 22 17 15 17 20 21 19 17 17 17 15 14 15 16 18 23 24 23 23 24 26
4 4 3 3 3 3 3 3 3 2 2 1 1 1 1 0 1 1 1 1 1 1 1 1 1 1 0 1 1 1 1 1 1 0 1 1 1 1 0 1 1 0 2 2 1 2 1 1 3 4 5 5 6 8 9 11 12 12 14 18 20 21 21 19 19 23 24 20 17 18 22 24 23 22 22 22 21 20 19 19 21 25 29 29 29 29 29
5 4 4 3 2 3 3 2 2 2 2 2 2 2 2 2 1 1 1 1 0 0 0 1 1 0 1 1 1 0 1 1 0 0 0 1 1 1 1 1 1 1 1 0 1 0 1 2 3 5 5 5 7 10 11 13 13 13 15 19 22 23 24 22 21 24 27 26 24 24 25 26 27 28 29 28 26 26 28 30 29 29 30 31 30 30 30
4 2 1 1 1 2 2 2 1 1 2 1 1 1 2 2 1 1 2 2 1 1 0 1 1 0 1 1 1 1 1 1 0 0 0 0 0 1 1 1 1 1 0 1 0 1 2 3 5 6 6 7 8 11 13 13 13 13 15 19 22 25 26 25 23 23 24 25 27 27 27 27 29 30 31 31 28 25 28 33 34 33 31 30 28 30 32
2 2 3 2 2 2 2 1 1 2 1 1 0 1 0 1 2 2 2 2 1 1 1 2 1 1 1 1 1 0 0 1 0 0 0 1 1 0 1 1 1 1 1 1 1 2 3 4 4 5 8 11 13 14 14 13 13 14 16 18 20 22 22 21 20 18 18 22 27 28 27 27 27 27 28 31 32 29 28 30 31 31 30 28 26 29 32
2 1 2 2 1 2 1 1 2 1 0 0 0 1 1 1 2 2 1 1 2 2 2 2 2 1 1 0 0 0 0 1 0 0 0 1 0 1 1 0 1 1 1 2 2 2 3 4 5 8 12 14 15 15 14 13 13 15 16 16 18 20 21 22 20 19 21 25 28 28 26 26 27 27 28 31 33 32 31 31 32 31 28 25 25 28 32
2 1 2 2 1 2 0 1 0 1 0 1 2 3 2 2 2 1 0 1 2 1 1 1 1 1 1 1 0 0 0 1 1 1 0 1 1 2 1 2 0 1 0 1 3 3 4 6 8 10 12 14 14 14 14 13 14 15 16 16 16 19 21 21 21 21 25 28 28 27 26 28 29 29 28 28 30 33 34 34 34 33 30 27 28 31 32
1 0 1 1 1 1 1 1 1 2 3 3 2 1 1 1 2 1 1 2 2 2 1 1 1 1 1 0 1 0 0 1 1 1 0 1 0 1 2 2 2 2 1 2 3 5 7 8 9 11 12 12 12 12 13 14 14 16 17 16 17 19 20 20 21 24 29 30 26 24 26 29 31 31 30 28 29 33 36 37 37 37 35 33 32 32 32
3 1 1 1 1 1 0 1 3 3 2 2 1 1 2 1 2 1 0 1 2 2 1 1 0 0 1 1 1 1 0 0 0 0 1 1 0 0 1 1 2 3 1 1 4 7 8 9 11 12 13 12 11 12 13 14 14 16 16 17 19 22 23 23 24 28 31 30 27 27 30 32 31 31 30 27 26 31 37 40 40 39 38 36 34 32 32
4 3 2 2 2 2 1 2 3 3 2 1 1 1 2 2 2 1 0 0 2 2 2 1 1 0 0 1 1 1 1 1 1 1 1 1 1 0 0 1 3 4 5 5 6 8 9 9 10 12 13 13 13 13 13 14 15 16 19 23 26 27 27 27 29 30 31 31 31 33 33 32 31 31 30 29 31 35 38 39 39 38 37 37 36 34 32
3 3 2 2 2 2 2 1 1 2 4 3 3 3 2 2 2 2 1 1 2 2 1 0 0 1 1 1 1 0 1 1 1 1 1 2 1 2 0 3 4 5 6 8 8 9 9 9 9 10 12 13 12 13 15 18 19 21 24 27 28 28 28 29 30 30 31 33 34 34 34 34 36 36 37 37 38 35 31 30 34 38 37 35 35 34 32
2 2 1 1 2 2 2 2 1 2 3 2 2 2 3 2 2 3 3 2 2 2 1 1 1 1 1 1 0 0 0 1 1 1 2 1 2 2 2 5 6 6 7 10 10 10 9 9 9 9 11 12 14 17 21 23 24 26 29 30 29 28 28 29 28 29 31 33 34 35 36 37 39 39 38 35 31 24 19 21 30 37 37 35 35 37 36
Wind_Direction
260 271 286 303 314 314 337 347 339 335 334 336 335 313 293 306 221 8 11 92 184 8 65 64 24 58 136 268 8 13 35 106 105 203 181 210 268 230 158 10 26 36 13 116 142 136 289 256 67 55 81 76 57 32 19 5 206 256 129 114 63 20 222 253 271 272 86 69 339 15 31 30 2 209 164 150 154 148 156 185 32 334 250 216 187 251 270
260 268 287 295 294 300 351 345 333 328 335 348 352 326 332 352 323 14 20 43 95 22 107 120 84 104 162 143 82 6 355 55 72 217 158 162 298 340 131 101 73 73 334 343 98 102 38 54 72 71 68 76 354 3 20 18 31 51 70 56 15 345 175 228 297 299 319 348 341 355 10 331 239 204 167 162 127 98 78 85 87 299 232 205 198 253 267
259 267 277 275 277 326 340 332 325 325 339 3 17 351 322 329 299 30 43 46 57 53 235 130 123 145 140 114 138 179 78 49 7 346 66 42 336 24 81 358 32 75 357 2 62 86 116 49 65 93 64 75 211 35 26 8 39 62 31 336 310 277 281 267 283 302 312 314 308 315 319 262 252 149 160 169 141 135 131 108 143 246 226 197 209 260 279
257 263 267 262 273 334 329 328 334 352 15 29 33 12 343 328 326 279 72 44 58 84 261 102 120 149 153 127 166 181 132 125 195 337 357 84 357 102 128 352 355 103 169 217 184 168 137 71 35 218 133 118 121 106 103 358 43 75 39 344 327 305 284 251 237 244 257 274 277 298 338 293 278 228 187 183 166 166 153 114 204 227 232 234 236 250 278
257 261 262 255 256 300 317 339 6 32 33 24 27 31 31 247 294 297 192 356 34 65 48 70 106 157 182 146 146 156 134 121 157 272 318 107 344 326 108 101 196 162 170 225 197 168 136 104 93 277 175 93 76 126 150 171 147 126 67 343 58 311 268 250 241 249 254 271 279 289 302 276 267 262 223 184 172 174 167 195 225 229 3 273 256 245 272
259 259 255 249 250 276 304 347 14 13 9 5 9 30 35 33 326 110 139 314 24 64 356 22 90 114 121 75 139 150 144 159 190 207 15 330 233 202 120 232 224 202 176 235 179 156 171 177 167 248 225 122 121 179 204 164 155 144 118 314 105 158 268 257 235 265 267 272 273 274 273 261 254 256 245 202 179 182 193 222 234 221 226 258 270 281 281
261 257 247 242 250 272 300 332 340 328 331 341 342 1 23 69 70 38 244 87 92 250 287 315 103 99 75 98 189 178 170 179 190 109 101 271 221 176 211 231 211 201 174 132 221 198 188 218 223 146 162 192 183 191 219 153 156 163 161 168 141 163 255 272 289 282 281 274 267 258 248 254 256 250 248 235 207 197 208 233 238 227 238 254 272 283 280
260 250 240 240 255 273 292 313 314 304 301 292 255 340 18 118 120 131 107 91 94 291 288 297 135 120 29 262 195 193 189 184 171 125 163 195 176 172 212 213 163 157 170 187 232 301 129 178 215 175 160 201 218 210 197 133 159 205 178 144 172 179 208 46 36 297 292 280 267 245 227 245 263 261 252 244 239 225 223 236 239 234 248 257 264 274 276
250 241 240 247 263 275 283 293 295 287 270 237 213 234 225 171 160 155 119 92 101 18 323 352 355 166 228 225 179 203 212 184 158 130 126 98 151 179 187 147 115 93 213 215 220 38 81 125 164 171 167 183 198 188 120 118 147 188 184 135 168 179 255 327 51 317 291 272 248 260 259 262 268 271 262 244 240 237 225 226 219 208 236 259 264 266 272
244 245 252 261 271 277 281 283 280 268 239 210 212 234 190 153 149 190 84 33 225 251 97 97 331 248 235 200 142 199 226 156 140 137 11 74 66 16 291 133 135 144 210 214 201 42 62 91 94 141 154 155 157 129 91 106 145 167 163 142 162 167 271 325 40 306 279 304 327 298 304 306 275 259 245 225 225 235 236 236 223 209 219 254 261 257 268
263 267 270 274 277 278 278 275 265 248 224 207 203 211 191 182 172 137 63 63 242 301 355 183 198 206 224 93 92 347 58 127 129 142 209 115 47 342 323 8 140 186 196 218 254 25 56 88 85 61 80 88 143 109 106 128 138 150 154 153 169 142 143 306 82 259 279 315 322 313 319 309 263 230 184 188 207 229 239 245 239 220 213 226 245 262 277
277 277 275 275 275 273 271 264 249 233 220 210 212 235 232 220 218 150 119 155 242 318 297 231 205 126 52 83 74 39 87 110 61 58 101 113 51 341 338 15 36 214 204 238 243 151 59 68 71 65 79 100 102 102 191 196 153 140 149 142 143 145 160 235 207 233 281 310 326 326 306 255 228 195 89 104 156 247 265 271 264 245 241 247 256 268 274
281 280 275 270 269 266 261 254 240 230 222 216 219 235 245 224 211 204 116 186 223 175 178 236 225 141 271 116 96 82 92 91 47 53 75 88 102 65 15 20 48 178 202 222 218 212 283 323 139 123 123 153 176 198 213 201 168 156 162 146 145 151 164 239 222 218 265 310 342 284 285 295 289 166 97 63 53 55 329 292 270 238 238 251 255 262 268
309 300 287 270 260 254 251 247 240 232 222 219 224 235 246 228 208 220 65 163 228 159 145 177 190 177 185 126 119 112 95 86 55 44 42 51 81 67 23 15 12 319 303 274 218 236 288 285 262 247 158 168 266 257 197 174 128 124 178 210 198 172 154 112 240 216 216 299 280 248 282 302 310 178 149 125 141 131 125 288 280 233 214 231 243 256 264
35 24 9 281 236 236 240 237 238 229 216 220 229 239 250 233 211 220 22 133 215 253 173 198 184 158 145 140 145 133 122 146 131 78 61 59 72 61 17 12 352 327 327 323 210 227 285 305 285 277 250 225 304 288 168 140 55 21 1 306 235 217 172 113 185 238 103 324 292 294 294 286 253 187 148 109 91 100 112 274 291 259 203 210 223 242 254
43 38 40 28 220 226 233 229 228 220 212 221 235 242 249 231 210 213 251 116 137 254 213 290 354 131 127 121 161 149 154 170 155 140 148 109 98 111 35 17 353 331 328 291 238 267 278 244 257 272 264 223 209 252 204 159 160 14 10 357 18 345 357 72 151 278 324 265 269 265 268 267 227 163 135 106 100 108 107 14 299 254 193 196 205 225 242
31 28 28 20 26 195 234 230 223 217 215 228 240 238 235 216 201 202 210 151 161 213 309 342 334 158 126 95 100 198 183 162 140 138 157 139 128 124 72 343 314 333 345 330 197 231 242 236 246 265 265 194 156 254 279 197 218 219 92 182 186 178 337 137 208 248 221 209 252 248 252 266 215 143 137 120 117 118 87 326 302 235 199 198 196 215 232
34 28 27 23 21 21 7 197 192 195 201 206 205 198 209 210 200 196 190 109 143 141 45 5 346 169 128 111 196 197 120 130 129 98 104 124 146 150 161 185 176 175 326 87 149 214 239 235 226 243 268 259 110 262 251 183 255 215 150 157 168 187 204 190 215 245 218 209 246 266 262 265 185 131 138 143 131 97 354 306 281 207 207 209 197 213 226
34 30 29 25 24 24 23 127 162 167 168 155 142 133 18 297 193 188 170 64 60 142 74 6 359 27 14 301 245 258 353 94 127 119 128 162 187 136 141 195 297 151 178 158 211 232 237 240 216 201 271 263 164 245 267 204 232 182 143 159 183 186 194 191 203 231 225 217 237 276 278 265 122 121 136 141 129 312 290 266 221 187 203 211 205 213 218
37 34 32 28 31 39 44 85 122 141 140 128 119 65 40 34 196 188 164 110 95 95 76 30 26 41 28 7 6 291 340 42 50 94 134 174 185 132 115 294 257 162 162 198 243 236 216 243 239 133 250 255 187 73 284 250 240 200 156 199 205 171 171 207 204 195 205 227 246 282 284 253 128 122 121 167 204 241 256 254 231 207 201 205 213 218 213
45 43 41 37 40 46 55 83 105 124 124 112 75 52 56 61 133 163 168 146 121 114 125 68 57 66 61 58 85 89 53 83 143 62 78 111 171 159 131 214 181 166 173 181 203 250 205 216 298 107 247 262 132 146 281 284 285 276 149 199 220 177 180 213 218 185 165 194 221 221 224 182 158 157 194 220 219 233 265 286 276 254 221 209 225 231 215
53 52 53 51 54 57 61 74 87 103 115 106 7 61 86 95 103 114 130 105 87 84 114 120 100 90 87 78 88 130 138 127 129 84 45 89 154 185 271 182 159 175 229 161 192 271 225 179 224 302 271 258 210 231 241 252 283 300 70 183 234 214 194 185 227 226 200 226 247 252 246 193 190 208 241 249 248 254 252 247 260 265 243 216 227 241 223
56 58 60 61 66 70 70 73 78 81 101 109 28 111 125 122 113 107 107 97 86 82 102 119 105 88 84 65 41 66 119 121 127 146 335 131 162 188 246 129 152 250 340 116 186 239 178 176 192 293 269 247 217 252 252 233 236 249 231 229 237 221 157 118 187 283 296 274 261 259 265 261 236 226 241 254 260 263 255 243 251 258 248 229 227 236 226
61 62 66 68 72 76 76 78 80 79 81 87 90 123 133 130 122 111 100 99 101 95 96 126 125 85 98 100 59 60 31 141 152 146 54 42 78 167 126 38 9 334 55 43 344 56 56 282 340 50 258 241 175 225 252 246 238 235 236 249 253 225 100 121 233 300 336 284 258 240 253 269 271 257 253 254 254 254 250 243 246 252 249 236 229 230 223
68 65 66 67 72 78 80 80 82 81 82 86 91 108 123 127 130 126 106 105 139 134 112 144 213 45 18 340 56 2 303 307 118 123 94 39 20 116 87 1 2 67 72 341 332 25 231 249 208 203 234 245 189 204 222 236 241 195 236 253 255 338 63 164 232 226 233 259 268 273 273 276 279 275 268 264 259 254 246 239 244 251 249 237 226 218 210
69 60 58 59 63 70 75 78 81 79 78 83 86 95 108 104 98 138 138 118 113 109 105 121 153 346 46 76 39 350 337 19 79 98 105 256 160 175 281 335 358 69 11 319 330 2 271 258 242 230 229 252 355 232 226 267 292 286 264 258 155 90 131 220 228 248 259 266 274 282 285 280 273 267 264 262 260 258 251 244 243 246 245 240 231 217 207
50 40 38 42 49 59 68 78 86 85 83 83 78 71 71 68 60 111 143 89 42 49 91 98 97 146 141 114 29 354 9 38 76 86 37 354 113 142 246 305 300 222 216 250 199 60 277 246 233 229 225 242 350 228 235 291 311 280 267 263 106 130 234 235 225 274 270 267 269 279 295 290 281 279 278 271 260 255 257 254 246 242 241 237 234 230 221
40 32 28 27 34 53 72 84 96 101 98 87 69 56 55 53 49 50 65 53 86 103 96 92 115 141 142 119 353 353 22 33 47 84 67 2 75 119 219 285 287 266 209 211 206 169 215 218 211 209 211 40 358 248 251 21 9 270 257 226 171 202 224 194 182 236 256 269 278 285 291 286 286 292 293 281 255 243 254 258 253 248 243 233 230 234 231
45 39 34 31 30 37 81 100 109 114 106 67 22 22 45 50 50 55 66 81 95 100 97 92 105 115 110 78 7 1 15 26 53 86 94 51 61 155 237 265 276 279 272 251 253 241 233 228 192 162 182 116 121 274 315 13 267 263 251 208 194 215 220 208 223 250 268 280 286 292 291 285 288 294 296 291 277 255 257 263 263 259 249 233 227 231 231
51 47 45 44 43 43 51 183 191 187 208 331 343 351 28 40 42 53 65 72 83 98 106 104 108 123 120 119 138 224 331 18 82 102 143 205 214 218 228 246 259 262 265 252 236 241 272 267 161 115 18 211 146 266 293 275 263 273 269 244 226 234 240 238 242 253 266 276 285 293 292 288 290 292 291 290 284 269 262 266 268 265 255 237 226 229 231
58 56 53 50 49 52 57 58 50 240 247 276 327 12 50 353 10 28 41 49 72 97 97 82 97 159 173 140 167 199 223 209 194 212 222 225 226 223 222 234 241 225 219 236 231 169 271 261 186 134 104 61 136 244 269 277 283 280 279 278 274 263 261 263 260 255 260 272 284 290 287 286 290 295 294 293 291 284 273 272 274 271 261 247 237 235 234
62 57 53 49 47 50 54 57 58 66 82 84 78 80 88 320 330 352 16 48 92 112 105 83 87 207 242 220 191 200 206 215 231 232 221 212 208 208 212 224 233 221 216 263 304 251 228 275 278 124 124 126 132 254 271 239 233 258 274 294 309 303 291 288 285 276 272 279 292 297 297 296 297 298 298 301 304 301 287 281 281 276 263 255 250 246 241
56 47 43 41 40 43 47 54 60 68 76 80 80 75 64 48 25 10 13 77 95 98 105 99 87 262 241 159 161 204 220 223 228 226 217 201 182 184 203 209 226 232 207 203 251 264 82 50 56 84 63 72 103 291 271 235 233 254 276 292 299 298 296 297 297 297 301 308 310 302 299 299 300 299 298 300 303 301 293 287 286 280 265 255 255 252 245
13 19 23 24 25 28 32 38 43 48 58 68 66 54 48 44 38 33 38 119 114 76 78 91 101 220 216 72 53 215 256 297 248 212 234 231 124 348 234 192 182 223 203 193 275 310 46 73 100 153 84 37 81 256 269 256 254 263 276 282 286 294 304 312 318 321 321 321 317 298 290 295 299 302 304 305 304 305 302 295 286 279 270 259 256 253 246
318 333 353 357 0 3 2 359 348 341 10 46 35 15 14 21 26 30 36 49 72 50 31 35 58 89 56 342 318 260 313 324 294 86 2 273 189 331 324 321 260 250 200 111 352 271 196 116 74 158 139 99 128 222 243 258 270 279 285 290 301 316 324 323 324 324 321 319 317 310 306 309 311 310 311 311 310 311 311 307 292 274 268 269 267 262 250
322 316 319 329 335 335 339 359 2 350 7 20 353 344 348 344 345 11 33 42 47 54 107 114 52 60 43 321 310 332 358 315 219 140 55 351 191 250 336 320 260 250 136 89 310 258 242 51 53 150 157 165 211 224 224 242 274 291 299 302 307 317 319 317 318 321 321 319 317 316 317 320 319 317 315 314 315 316 315 313 309 291 275 276 278 272 261
343 333 321 319 325 325 330 6 14 12 3 344 328 324 330 330 327 343 26 37 39 45 62 82 57 48 61 266 308 349 349 318 238 140 109 314 283 248 200 231 271 299 62 212 232 225 62 58 125 211 220 217 238 265 270 271 279 285 290 296 302 309 314 317 321 324 324 324 324 324 324 322 319 319 318 317 318 320 317 314 313 305 291 288 287 282 275
347 338 327 328 346 7 348 338 340 334 324 327 330 331 334 344 6 33 21 7 18 26 40 66 65 24 324 257 319 348 353 302 305 339 105 233 318 348 192 244 287 18 320 266 238 183 36 10 198 233 259 270 282 282 274 268 269 271 277 289 300 307 312 320 328 332 332 331 330 329 328 325 321 320 320 316 313 314 314 310 308 306 299 292 291 290 286
344 337 333 346 15 311 299 326 330 321 315 327 348 10 3 5 25 13 326 343 16 10 18 50 53 348 338 321 320 4 39 50 285 301 334 35 5 331 310 301 49 41 324 285 264 68 334 254 215 253 278 275 265 256 255 264 283 294 298 303 308 312 318 324 331 332 328 320 316 317 319 319 318 317 318 318 316 315 314 311 309 308 306 301 299 297 291
346 344 338 345 341 290 311 332 335 324 318 352 21 40 20 21 35 343 319 14 38 358 359 59 97 322 14 88 235 329 33 54 224 271 319 332 223 116 341 312 22 36 294 276 289 43 353 259 249 277 267 261 266 277 296 319 326 323 322 326 329 334 338 337 333 331 327 317 314 316 315 311 311 311 310 312 314 313 313 314 312 310 308 305 303 300 296
348 351 341 319 318 312 314 331 347 2 40 41 33 39 30 8 347 303 42 40 13 302 265 125 214 279 340 61 240 291 17 39 83 208 279 288 335 78 341 293 351 60 268 266 295 47 11 287 275 254 244 259 290 313 332 340 340 336 338 341 342 342 341 337 334 334 333 327 322 322 319 315 314 311 308 308 308 306 307 309 309 308 309 307 304 303 302
330 324 316 307 311 319 324 338 3 29 50 43 23 18 2 331 343 358 26 42 339 274 225 157 194 227 160 113 171 266 351 9 13 221 251 278 347 61 245 300 16 36 250 257 52 60 8 283 270 258 255 279 315 335 345 346 342 340 340 342 342 340 338 336 333 332 331 328 321 319 319 317 314 312 310 308 306 304 304 304 304 306 308 308 307 306 305
316 306 313 317 326 348 359 354 5 42 52 44 36 7 335 347 39 24 305 291 323 313 247 113 116 131 104 99 108 61 3 15 24 23 262 266 319 33 38 9 349 220 229 4 49 46 244 239 246 259 277 310 335 344 345 341 338 337 338 338 337 336 335 334 331 328 328 327 323 319 319 318 315 315 315 313 308 306 307 307 307 307 306 306 307 306 305
328 322 19 33 4 13 16 341 334 45 37 15 60 65 349 344 355 288 288 308 314 267 290 45 52 341 310 332 20 30 7 10 46 61 256 262 353 45 50 272 250 233 5 16 337 227 245 248 246 259 288 319 335 340 341 339 337 336 334 333 335 336 335 332 331 329 328 327 326 324 323 321 319 318 318 317 314 311 308 308 309 309 308 306 305 304 304
351 14 34 20 346 357 23 339 341 41 47 347 69 126 199 293 293 283 292 309 307 303 348 17 13 308 283 319 20 40 320 323 31 189 274 341 349 287 225 244 292 12 21 319 294 289 281 272 275 301 324 333 338 339 339 337 336 334 331 330 333 336 335 332 332 330 327 327 327 327 325 323 321 319 318 317 316 313 309 307 308 309 308 307 306 304 306
66 63 62 57 333 320 7 26 1 23 102 208 13 50 41 306 305 309 324 344 347 348 359 347 319 280 244 248 62 70 326 329 297 225 84 51 314 255 238 35 13 21 16 327 307 278 261 282 320 337 335 334 335 334 333 333 333 334 333 331 331 332 332 330 329 327 326 327 327 325 323 321 319 317 315 314 314 313 311 309 308 308 306 304 303 302 304
76 56 72 80 334 312 28 113 274 302 104 86 50 35 18 340 312 297 287 314 316 311 267 266 278 254 204 183 102 116 302 9 337 283 84 93 254 279 15 57 13 294 338 295 286 286 298 318 333 335 330 329 330 329 329 331 332 331 330 328 326 326 327 327 327 327 326 326 324 322 319 318 316 315 314 312 311 312 312 311 312 311 308 304 303 302 302
82 56 70 100 205 271 15 21 336 357 42 59 52 32 334 306 306 290 256 269 291 302 296 291 315 339 294 297 74 95 13 17 2 302 353 81 353 333 14 12 298 277 193 207 264 308 326 327 324 322 323 326 328 327 327 329 329 328 328 327 325 326 326 325 324 323 322 322 320 317 316 316 315 314 314 312 311 313 314 313 313 313 311 308 306 305 304
77 89 80 82 136 203 211 37 29 30 50 96 143 206 230 274 316 325 256 277 302 305 284 255 262 320 298 318 58 65 346 297 199 338 9 30 15 314 13 323 299 306 299 263 302 320 322 318 318 319 321 325 327 326 325 325 325 325 326 324 324 324 323 320 319 319 318 318 317 315 315 315 315 313 313 313 312 313 314 313 313 312 311 310 308 306 305
54 65 50 27 20 354 337 20 31 17 8 57 70 21 324 319 329 344 121 265 295 292 275 262 261 233 223 36 45 20 297 266 104 60 1 314 229 157 105 275 294 314 323 323 322 319 314 314 318 319 320 323 325 323 321 321 322 324 325 325 323 321 319 316 316 316 316 316 316 315 314 314 314 313 313 313 311 310 310 310 310 310 310 310 310 307 305
46 62 59 40 34 8 338 330 330 320 326 355 20 5 334 322 328 332 327 304 300 304 302 297 46 58 43 20 10 314 302 13 67 71 281 257 172 129 258 284 296 315 321 317 315 312 312 315 319 319 319 323 323 319 319 320 321 323 324 322 319 317 316 315 315 316 315 316 316 315 314 315 314 312 312 311 310 309 308 308 308 309 310 310 310 307 304
54 60 23 23 41 12 332 310 267 308 337 21 50 359 325 318 329 333 326 309 308 330 358 49 62 53 29 334 284 192 15 16 26 325 295 274 168 167 244 284 302 318 320 315 314 312 310 312 315 315 314 315 314 313 316 319 321 323 322 319 316 315 315 315 315 317 317 316 316 315 314 314 313 314 314 313 311 310 309 309 310 311 311 310 309 308 307
Height
841 841 841 841 841 841 841 840 840 839 839 838 837 837 837 837 838 837 835 835 835 838 846 852 856 862 868 869 869 869 867 868 872 872 872 871 868 866 866 866 865 866 867 867 866 868 867 864 865 867 868 878 891 896 896 895 894 890 884 884 890 888 883 879 868 860 868 877 875 873 875 874 872 871 872 876 879 877 880 888 894 898 889 879 892 887 840
841 841 841 841 841 841 841 841 840 840 839 838 838 838 837 837 837 836 836 836 836 839 844 851 860 868 869 868 869 870 868 869 870 869 869 869 867 864 865 868 868 868 869 868 866 869 867 864 868 870 868 880 897 899 897 896 891 891 891 890 893 885 874 875 871 861 861 866 867 869 874 875 870 868 872 875 877 883 887 894 903 902 886 880 892 878 830
841 841 841 841 841 841 841 841 840 840 839 838 838 838 837 838 838 837 837 837 837 841 844 847 858 866 865 865 868 867 868 872 872 870 870 871 869 866 867 869 869 870 871 869 870 872 869 866 872 874 873 885 898 900 900 899 894 897 900 898 896 888 875 875 875 866 859 857 857 858 863 865 862 865 875 877 880 887 887 890 902 898 879 874 880 859 819
841 841 841 841 841 841 841 841 840 839 839 839 839 839 838 840 841 840 839 838 840 844 846 846 853 861 861 861 864 864 866 871 873 872 871 871 871 868 869 871 869 870 872 870 870 872 873 873 874 874 875 885 896 900 900 901 899 901 903 900 896 892 884 879 875 869 863 858 854 854 858 861 860 863 873 879 884 886 884 888 889 878 868 863 856 844 825
841 841 841 841 841 841 841 841 840 839 840 839 839 840 840 841 843 844 843 842 842 845 847 847 850 854 853 855 860 861 864 868 871 871 871 872 872 869 869 870 868 868 869 867 866 869 873 876 876 876 878 886 896 900 900 900 901 902 902 899 896 893 886 880 877 871 864 860 857 857 861 864 861 860 864 875 886 888 887 886 871 859 865 855 831 830 833
840 840 840 840 841 841 841 840 840 840 840 840 840 841 842 842 844 848 848 846 846 847 847 849 851 851 852 857 860 860 862 865 866 868 872 873 871 869 868 868 867 865 865 864 864 867 870 872 874 877 880 886 892 896 897 899 900 900 901 900 899 894 885 880 880 874 868 867 864 861 863 863 859 857 857 865 881 886 881 874 864 862 868 849 824 828 834
839 839 840 840 840 840 841 840 840 840 840 840 840 841 843 845 846 850 851 849 852 854 852 851 851 850 853 858 860 859 860 861 861 865 870 871 870 868 864 863 864 863 863 864 864 864 865 867 870 875 879 882 885 886 888 895 900 899 898 899 901 894 884 882 883 877 870 866 861 858 860 859 855 854 851 852 864 874 873 866 863 865 863 847 836 838 835
838 839 839 839 840 840 840 840 840 840 840 840 840 841 843 843 844 847 850 850 855 857 854 851 850 851 853 854 856 857 857 858 860 862 863 863 865 868 864 860 862 863 864 866 865 864 865 865 868 874 875 877 880 877 875 885 898 898 893 897 900 894 883 879 881 878 865 853 850 851 852 852 851 848 847 846 850 857 863 862 861 863 859 849 847 848 835
837 838 838 838 839 838 839 839 839 840 840 840 841 841 841 841 841 843 844 848 854 855 852 852 849 848 851 851 852 855 853 853 857 859 861 862 862 865 863 859 862 867 867 866 866 867 869 868 869 873 873 872 875 875 873 879 890 894 893 895 897 895 885 877 880 880 862 847 846 847 847 850 849 843 841 843 845 845 846 846 848 851 848 844 847 846 827
837 837 837 837 838 837 838 838 838 839 839 839 840 840 841 841 841 841 841 845 853 853 851 852 849 847 850 851 852 854 852 850 853 855 860 864 864 865 863 860 863 867 866 867 870 872 873 872 873 874 874 873 874 875 876 876 881 888 892 892 893 894 888 880 882 880 862 847 848 851 851 845 834 827 826 828 834 838 837 835 835 836 837 838 837 828 812
836 836 836 836 836 836 836 837 837 838 838 839 840 839 840 840 840 841 841 843 851 854 851 849 848 848 852 853 854 855 853 852 854 854 858 865 868 868 866 863 862 863 867 872 875 876 876 875 876 875 875 876 875 876 877 876 878 882 885 890 893 893 890 885 883 880 867 855 854 855 849 832 815 814 818 818 822 828 828 826 824 824 827 827 821 812 806
835 835 834 834 835 835 835 835 836 837 837 838 839 838 839 839 839 840 840 841 849 855 851 850 851 853 854 855 855 856 857 858 859 859 860 866 870 869 868 866 862 865 874 878 877 878 876 875 876 877 877 877 877 878 878 878 879 879 879 884 888 891 891 885 883 884 876 864 859 850 832 815 812 821 825 823 823 826 827 824 821 822 821 817 814 810 806
833 833 833 833 833 834 834 835 835 836 836 837 838 838 839 839 839 839 840 840 845 850 849 852 860 862 857 856 857 861 863 864 864 864 863 866 870 871 873 873 870 873 879 878 878 878 875 872 873 874 877 881 880 880 880 878 879 881 881 881 883 887 889 884 882 884 876 865 860 848 824 808 812 825 831 832 831 833 833 823 813 815 819 815 813 810 806
833 833 832 832 833 833 833 834 834 835 836 836 837 837 838 839 839 839 839 839 842 849 849 849 855 859 857 857 860 863 865 865 864 865 867 868 871 876 879 879 878 879 879 878 878 877 870 866 865 864 870 874 870 871 877 880 881 883 884 883 882 882 884 885 883 875 869 868 865 852 833 816 811 818 827 830 829 831 833 824 807 804 811 812 811 809 807
833 833 832 832 832 832 833 833 834 834 835 836 836 837 837 838 838 838 839 839 841 847 849 845 847 852 856 858 859 859 862 863 862 866 870 872 877 881 882 881 880 880 879 878 877 873 868 865 861 856 857 857 853 857 871 881 885 888 887 885 885 884 883 885 882 869 865 873 871 858 840 817 805 814 826 830 829 829 837 836 817 802 803 806 806 807 806
833 833 833 832 832 832 832 833 833 834 835 835 835 836 836 837 838 837 838 839 837 841 848 851 851 853 855 858 858 857 857 858 859 863 867 872 879 882 881 881 881 880 880 878 874 871 868 865 861 856 852 848 847 852 860 867 876 889 893 887 886 889 887 887 888 880 876 877 872 862 844 815 803 818 832 834 833 832 837 833 810 797 801 803 802 805 804
834 834 833 832 833 833 832 833 833 833 835 834 835 836 835 836 837 837 837 838 838 843 854 859 855 851 852 855 857 855 853 854 854 855 858 868 878 882 882 882 881 880 880 876 872 871 868 864 862 858 851 848 850 851 852 852 855 872 891 893 891 892 890 890 892 888 884 881 871 859 839 813 807 823 834 836 835 836 833 816 793 793 803 802 799 802 803
834 834 834 833 833 833 833 833 833 833 834 834 835 835 835 836 836 837 838 837 837 845 859 863 857 852 853 855 854 852 851 852 851 851 858 869 875 877 880 880 878 880 880 874 868 868 866 860 858 856 852 854 856 852 849 848 843 851 871 884 888 891 891 889 886 881 880 878 870 856 833 810 812 828 834 835 836 832 821 801 787 793 801 798 798 801 799
835 834 834 834 833 833 833 833 833 834 834 834 835 835 835 836 836 836 838 838 838 846 859 864 861 859 861 860 857 854 853 852 850 851 856 862 867 872 876 876 874 876 878 875 868 865 861 856 854 855 853 855 857 853 849 847 842 844 855 861 866 874 879 879 880 878 870 863 861 854 829 809 818 832 835 836 830 812 798 791 788 793 795 793 796 796 795
836 835 834 834 834 834 834 833 834 834 834 834 835 835 835 836 836 836 837 839 843 852 862 865 863 863 864 863 859 857 854 852 852 851 850 855 865 869 865 863 867 872 875 875 868 860 858 855 853 856 855 852 852 852 850 846 839 839 844 843 844 851 855 857 862 863 856 854 856 843 815 805 820 828 829 833 819 791 783 788 789 788 789 789 791 791 790
836 836 835 835 834 834 834 834 834 834 834 835 835 835 835 836 836 836 837 838 840 847 858 865 864 864 865 864 864 863 860 858 858 856 853 856 863 863 853 852 862 866 866 867 863 857 858 857 854 856 856 853 852 851 849 846 840 840 844 844 842 842 839 835 836 836 835 840 837 816 796 805 819 810 803 809 802 785 784 789 785 783 785 785 786 785 785
837 837 836 836 835 835 835 835 835 835 835 836 835 835 836 836 836 837 837 838 842 849 859 864 864 864 864 864 864 865 864 864 864 863 861 859 861 861 857 856 860 860 859 860 858 856 857 858 856 856 854 852 852 849 846 845 842 841 846 845 836 831 830 829 826 824 822 820 812 798 793 804 812 802 791 791 789 785 787 787 783 782 781 780 781 780 779
839 838 838 837 836 836 835 835 835 835 835 836 836 836 836 837 837 838 837 840 848 857 863 864 863 864 865 865 864 864 864 864 865 865 865 862 859 859 860 859 859 860 860 860 858 857 856 856 856 857 853 848 848 847 845 846 842 837 838 837 829 825 829 832 829 826 822 812 800 796 795 795 797 797 793 788 785 783 782 782 780 778 776 776 777 775 775
840 839 839 839 838 837 837 836 836 836 836 836 836 836 836 837 838 838 838 841 848 854 859 863 864 864 864 865 865 865 865 865 865 865 866 864 860 857 859 861 862 861 861 863 862 861 859 859 861 863 857 848 846 846 845 844 839 833 831 831 827 827 832 833 829 830 827 810 794 791 792 789 788 789 787 783 782 779 777 778 775 772 772 773 772 772 773
842 841 841 840 839 839 838 838 838 837 837 837 837 837 838 838 838 838 838 840 842 844 849 857 862 864 865 865 865 865 865 865 865 865 866 866 865 862 861 864 866 864 863 865 865 863 862 861 862 864 858 849 845 844 842 838 836 835 834 829 824 827 834 833 829 829 826 810 793 790 790 787 784 783 781 778 776 773 773 773 771 769 770 769 769 770 771
843 843 842 842 841 841 840 839 839 839 839 839 839 839 839 839 839 839 838 838 840 840 844 853 861 865 865 865 866 866 866 865 866 866 866 866 866 866 866 867 867 866 866 866 865 864 863 861 860 859 856 852 849 847 843 840 838 838 836 829 826 832 835 828 822 824 821 808 795 789 787 782 778 776 775 773 772 770 769 769 769 768 768 767 767 768 768
844 844 843 843 842 842 841 841 840 840 841 841 841 841 841 840 840 840 839 839 839 839 842 852 862 866 866 866 867 867 866 866 866 866 867 866 866 867 867 867 866 866 866 865 865 865 864 862 861 858 855 855 855 852 849 847 847 845 839 832 831 833 828 822 822 824 816 802 790 786 784 780 773 771 771 770 769 769 768 767 767 766 764 764 765 765 765
845 844 844 843 843 843 843 842 842 841 842 842 842 842 842 841 840 840 840 840 840 840 846 856 863 864 864 866 868 867 866 867 867 866 866 867 867 867 867 867 866 866 865 864 865 864 863 861 858 855 854 856 856 852 850 852 853 847 837 830 828 825 818 816 819 815 803 792 786 786 787 782 773 770 770 769 768 768 767 764 763 762 760 761 762 761 762
846 845 844 844 843 843 843 843 843 843 843 843 843 843 842 842 842 841 841 841 841 843 851 858 861 862 864 866 868 868 867 866 866 867 867 867 867 867 867 867 866 865 864 864 863 861 859 856 853 853 856 858 855 850 849 851 847 834 820 817 818 816 812 811 810 805 798 791 787 787 787 782 774 771 770 768 767 767 765 761 758 757 756 757 757 756 756
848 847 846 845 844 843 843 843 843 843 844 843 843 843 842 843 843 843 843 843 842 844 848 852 855 862 867 868 867 867 867 867 866 866 867 867 867 866 866 866 865 865 864 864 863 861 858 854 853 856 858 858 857 854 851 849 844 827 811 808 811 810 809 809 808 805 799 792 788 788 787 780 775 772 768 766 764 764 761 757 754 753 752 752 752 750 750
849 848 847 846 845 844 844 843 843 844 844 844 844 843 843 843 844 844 844 844 843 844 846 850 857 864 867 866 867 867 866 866 867 866 866 866 866 865 865 865 864 864 863 862 861 860 858 854 853 857 859 858 859 857 853 852 848 829 810 805 809 809 808 808 806 803 799 793 789 788 784 778 774 770 766 762 761 761 759 755 752 751 751 749 748 746 745
850 849 849 848 847 846 845 845 845 844 844 844 844 844 845 845 845 844 844 844 844 844 844 848 854 858 859 862 866 867 866 866 867 866 865 865 865 865 865 865 864 863 863 863 862 860 858 855 854 856 859 859 860 859 857 856 849 829 810 807 809 809 807 805 802 799 796 793 790 787 780 776 774 771 765 760 758 759 758 753 750 750 748 746 745 743 742
850 850 850 849 849 848 847 847 847 846 846 845 845 845 846 845 844 844 844 843 844 844 843 845 849 852 855 860 864 865 865 866 865 865 864 864 864 865 864 864 864 863 863 863 861 858 857 857 857 859 860 860 860 861 859 852 840 825 815 813 811 808 805 802 799 797 794 792 792 789 782 775 772 769 766 762 759 757 755 751 748 747 746 745 743 741 740
851 851 851 850 850 850 849 849 848 847 847 847 846 846 846 845 845 845 844 843 844 844 844 846 847 849 854 859 860 863 866 865 862 862 863 864 865 865 863 862 863 863 861 861 860 857 857 859 859 860 861 862 863 862 854 840 828 822 819 815 810 806 803 800 797 796 794 791 790 788 784 777 772 767 764 760 757 753 751 749 747 746 744 742 739 738 738
852 852 851 851 851 850 849 849 848 848 848 848 847 848 847 846 846 846 844 845 845 843 845 847 847 847 851 852 852 859 867 866 862 862 863 864 865 865 863 862 862 860 860 860 859 856 857 858 857 857 860 862 862 856 843 829 821 818 816 811 807 805 802 799 796 795 793 791 787 784 780 776 772 767 763 759 756 752 749 747 745 744 742 738 735 734 735
852 852 852 851 851 850 850 849 848 848 848 848 848 848 847 847 847 847 846 846 845 844 846 849 849 851 853 851 852 862 868 864 862 863 864 864 865 864 864 863 861 858 859 861 860 857 856 857 857 857 859 856 847 837 828 822 819 816 813 809 808 806 804 801 798 794 792 790 787 782 778 775 772 768 763 759 756 753 750 746 744 743 741 736 732 730 730
852 852 851 851 850 850 850 849 849 849 849 849 849 848 847 847 847 846 846 847 847 847 849 849 851 860 863 858 858 865 867 860 859 862 863 863 863 863 864 863 859 856 857 858 858 858 858 858 859 857 852 843 833 827 824 823 820 817 813 810 808 806 804 802 799 794 790 787 783 780 777 774 771 768 764 759 755 753 750 747 744 742 739 734 730 727 725
852 852 851 851 850 850 850 850 850 850 849 849 849 847 847 848 847 847 849 849 848 850 853 853 858 867 869 862 861 865 865 861 859 859 860 862 862 861 862 862 859 857 854 852 854 859 859 859 861 859 848 837 830 827 824 821 818 816 814 811 809 807 805 801 798 795 791 787 782 779 776 772 767 764 763 759 755 752 750 746 743 740 737 732 728 725 722
852 852 851 851 851 851 850 850 850 850 849 849 848 848 849 849 847 847 851 853 852 854 856 859 865 870 867 862 863 867 868 866 862 858 860 862 860 858 859 859 859 859 853 847 852 858 854 852 857 857 846 834 827 821 817 817 817 814 813 811 809 806 804 801 799 797 795 792 788 784 781 777 771 765 761 757 753 748 745 743 740 737 734 730 726 723 720
852 852 851 851 851 851 851 850 850 849 848 849 848 848 849 849 850 853 854 851 852 858 862 864 870 874 872 867 866 868 869 869 866 864 865 865 863 862 862 859 860 860 853 847 854 859 853 848 852 848 834 822 819 816 815 816 815 813 811 810 806 803 801 799 797 795 794 791 788 785 782 779 775 770 765 760 755 749 744 740 736 734 731 727 723 720 717
853 852 851 851 851 850 850 850 849 849 849 849 848 849 850 852 858 863 859 849 850 861 869 870 869 870 872 872 871 869 871 872 872 872 871 868 866 866 863 861 862 860 852 849 858 863 857 852 850 842 828 818 816 816 815 814 813 811 809 806 803 801 799 797 795 794 792 788 785 782 779 776 773 770 766 761 756 751 747 742 736 731 728 724 720 717 714
853 852 852 852 852 851 850 850 848 849 850 848 847 852 856 857 859 861 858 853 857 865 868 869 868 868 871 874 873 871 873 874 874 873 871 869 867 867 867 868 866 857 850 855 864 863 857 850 842 830 822 818 816 815 814 813 811 809 807 804 802 801 799 797 794 792 791 788 784 780 776 773 770 767 763 759 754 749 745 742 737 731 725 721 717 713 710
853 852 852 852 851 851 851 850 849 851 852 850 849 852 855 857 860 862 860 861 867 868 866 867 871 871 871 873 874 873 874 874 874 874 872 870 871 871 870 869 864 857 856 864 865 857 851 846 834 821 816 817 816 815 815 813 810 808 806 804 803 801 799 797 794 790 788 786 783 778 774 770 766 762 759 756 752 746 741 737 734 729 723 718 714 710 706
852 852 851 852 852 852 851 851 851 851 853 854 855 855 854 857 862 863 859 860 865 866 866 869 870 867 868 873 874 874 874 875 874 873 872 872 873 871 864 859 859 859 860 861 858 852 848 843 832 822 819 819 817 816 815 812 810 808 804 802 802 801 798 795 792 788 785 782 778 775 772 767 762 758 754 751 748 744 737 732 727 724 719 715 711 706 702
852 852 852 851 852 853 853 853 854 854 856 858 859 859 859 860 859 859 861 867 870 868 868 872 871 868 870 874 874 873 875 876 873 872 873 872 870 865 860 859 862 863 860 856 854 848 840 833 826 823 821 819 816 815 814 812 811 809 805 801 799 798 796 794 791 787 784 780 776 772 768 764 759 754 749 745 742 739 734 729 724 719 715 711 706 701 697
853 856 855 853 854 858 858 857 856 857 859 862 862 862 862 863 863 865 871 877 875 871 871 874 873 870 870 873 873 874 877 876 872 873 876 873 864 860 862 864 863 859 854 850 847 841 832 826 824 823 821 819 818 816 815 813 811 810 807 803 799 797 795 793 790 787 783 779 775 770 766 761 757 752 746 741 737 734 730 725 721 717 713 708 703 698 693
855 858 858 855 857 860 860 859 860 861 863 866 869 870 872 873 874 875 878 878 876 874 875 875 873 871 872 874 873 873 877 878 874 873 876 873 865 863 867 865 859 854 850 845 840 835 831 828 827 824 822 822 820 817 815 814 811 809 807 805 801 798 795 791 788 784 781 777 773 768 763 759 754 749 744 739 734 729 725 721 717 713 710 706 701 696 691
857 859 858 857 858 859 859 861 865 867 870 874 878 880 881 879 876 874 877 879 878 876 875 874 873 871 872 873 872 872 876 877 872 872 877 875 867 862 861 857 853 852 851 845 839 836 833 830 828 826 824 823 821 818 816 814 811 809 807 804 800 797 793 789 786 782 778 774 770 765 761 756 751 746 742 736 731 726 722 718 713 710 706 702 698 694 689
858 858 859 860 862 863 866 868 867 866 870 877 881 880 879 876 873 873 877 880 878 876 876 876 873 869 870 873 874 873 874 873 870 871 876 874 866 861 859 854 848 845 845 842 840 838 835 831 829 827 824 823 822 819 817 813 811 809 807 803 799 796 792 788 784 780 775 771 767 763 758 754 749 744 739 734 728 723 719 714 710 706 702 698 694 690 685
859 861 864 867 866 866 869 871 868 865 867 873 876 876 876 874 874 876 879 879 878 877 877 875 872 871 874 875 872 868 871 875 875 873 869 866 864 865 863 855 848 846 845 843 841 838 835 832 829 826 823 823 821 819 816 813 811 808 805 802 798 794 790 785 781 777 773 769 765 760 756 751 746 741 736 731 725 720 715 711 707 702 697 694 690 686 681
861 865 872 875 873 872 872 871 869 869 871 872 874 877 878 877 876 878 879 879 878 876 872 871 872 873 871 868 864 864 870 877 878 872 865 862 865 865 859 852 849 849 847 843 841 838 834 832 830 827 824 822 820 817 814 812 809 807 804 801 796 791 787 783 779 774 770 766 762 758 753 748 743 738 733 728 722 717 712 707 702 698 693 690 686 682 677
865 869 875 879 880 880 878 875 873 874 876 876 878 880 880 879 879 881 881 879 878 874 872 872 873 870 865 864 868 871 872 872 871 865 860 859 862 861 855 851 851 850 846 842 839 835 832 831 830 828 825 823 819 816 813 810 807 804 801 796 792 788 784 780 776 772 768 764 759 754 750 745 740 735 730 724 719 713 708 702 697 693 689 685 681 677 673